Regional Weather Roundup
Issued by NWS Binghamton, NY

Home | Current Version | Previous Version | Text Only | Print | Product List | Glossary On
Versions: 1 2 3 4 5 6 7 8 9 10 11 12 13 14 15 16 17 18 19 20 21 22 23 24 25 26 27 28 29 30 31 32 33 34 35 36 37 38 39 40 41 42 43 44 45 46 47 48 49 50
000
ASUS41 KBGM 240810
RWRBGM
RWRBGM
BINGHAMTON REGIONAL WEATHER ROUNDUP
NATIONAL WEATHER SERVICE BINGHAMTON NY
400 AM EDT SUN MAY 24 2015

Note: "fair" indicates few or no clouds below 12,000 feet with no
significant weather and/or obstructions to visibility.

* = Station(s) that does not report precipitation, such as rain,
snow, etc, also no thunder or fog.

!NYZ009-015>018-022>025-036-037-044>046-055>057-062-240900
...CENTRAL NEW YORK...

CITY           SKY/WX    TMP DP  RH WIND       PRES   REMARKS
BINGHAMTON     CLEAR     50  31  48 SW8       30.31S
CORTLAND       FAIR      37  37 100 CALM      30.32F
DANSVILLE      CLEAR     46  35  65 SE10      30.31S
ELMIRA         CLEAR     34  34 100 CALM      30.33S
ITHACA         CLEAR     39  37  92 E5        30.31F
MONTICELLO     CLEAR     39  34  81 CALM      30.34F
NORWICH        CLEAR     36  36 100 S3        30.33S
ONEONTA        CLEAR     46  28  49 SW5       30.30F
PENN YAN       CLEAR     51  40  65 SW13      30.29S
ROME           MOCLDY    40  36  86 CALM      30.29S
SIDNEY         CLEAR     37  37 100 CALM      30.33S
SYRACUSE       CLEAR     53  32  44 S8        30.26S
$$

!PAZ038>040-043-044-047-048-072-240900
...NORTHEAST PENNSYLVANIA...

CITY           SKY/WX    TMP DP  RH WIND       PRES   REMARKS
HAZLETON       CLEAR     41  36  81 CALM      30.38S
SCRANTON       CLEAR     42  34  73 CALM      30.34F
$$
&&
KEY
WCI = WIND CHILL INDEX
VSB = VISIBILITY
HX  = HEAT INDEX
$$


USA.gov is the U.S. government's official web portal to all federal, state and local government web resources and services.